Location: Newark
(40.9833°N, 0.0333°W)
Time: 03:37:51
(UTC+00:00)

Transit 2A Rocket - Pass Details

Date: 04 November 2020
Orbit: 588 x 914 km, 66.7° (Epoch: 26 November)

Event Time Altitude Azimuth Distance (km) Brightness Sun altitude
Rises 16:13:28 0° 334° (NNW) 3,256 8.3 5.9°
Reaches altitude 10° 16:16:04 10° 341° (NNW) 2,269 7.4 5.4°
Maximum altitude 16:21:01 46° 54° (NE) 939 5.2 4.6°
Drops below altitude 10° 16:25:30 10° 128° (SE) 2,060 7.0 3.8°
Sets 16:27:46 0° 134° (SE) 2,925 7.8 3.4°
